N1NSI Weather Reports


Display with metric or nautical units.
time (UTC)temp
F
wind
direction
speed
MPH
gust
MPH
rain 1hr
in
rain 24hr
in
rain mn
in
humidity
%
barometer
mb
20180723172003 83 57 0.0 6.0 0.00 0.15 0.09 77 1022.7
20180723171504 83 45 0.0 6.0 0.00 0.15 0.09 76 1022.7
20180723171004 82 41 0.0 4.0 0.00 0.15 0.09 80 1022.8
20180723170504 82 66 0.0 4.0 0.00 0.15 0.09 79 1022.7
20180723170004 82 72 1.0 8.0 0.00 0.15 0.09 80 1022.8
20180723165503 81 70 1.0 8.0 0.00 0.17 0.09 84 1022.8
20180723165004 80 69 0.0 6.0 0.00 0.17 0.09 85 1022.8
20180723164503 80 52 0.0 6.0 0.00 0.17 0.09 85 1022.8
20180723164004 79 45 0.0 6.0 0.00 0.17 0.09 87 1022.8
20180723163503 79 148 0.0 4.0 0.00 0.17 0.09 87 1022.8
20180723163004 79 74 1.0 6.0 0.00 0.17 0.09 88 1022.8
20180723162503 78 72 1.0 6.0 0.00 0.17 0.09 89 1023.2
20180723162004 78 101 1.0 9.0 0.00 0.17 0.09 89 1023.2
20180723161503 78 115 1.0 9.0 0.00 0.17 0.09 91 1023.2
20180723161003 78 119 1.0 4.0 0.00 0.19 0.09 92 1023.3
20180723160503 78 124 1.0 4.0 0.00 0.19 0.09 93 1023.3
20180723160003 78 80 0.0 4.0 0.01 0.19 0.09 94 1023.3
20180723155504 78 71 1.0 6.0 0.02 0.19 0.09 94 1023.2
20180723155003 78 72 1.0 7.0 0.02 0.19 0.09 95 1023.2
20180723154504 77 56 1.0 7.0 0.02 0.19 0.09 95 1023.3
20180723154003 77 67 1.0 2.0 0.02 0.19 0.09 95 1023.3
20180723153503 77 74 0.0 2.0 0.02 0.19 0.09 95 1023.3
20180723153004 77 59 1.0 4.0 0.02 0.19 0.09 95 1023.3
20180723152503 77 53 1.0 4.0 0.02 0.20 0.09 95 1023.3
20180723152004 77 48 1.0 4.0 0.02 0.20 0.09 95 1023.3
20180723151503 77 74 1.0 6.0 0.03 0.20 0.09 95 1023.3
20180723151004 77 83 0.0 6.0 0.03 0.20 0.09 96 1023.3
20180723150504 77 77 0.0 1.0 0.03 0.20 0.09 96 1023.3
20180723150003 77 76 0.0 2.0 0.02 0.19 0.08 96 1023.3
20180723145503 77 73 0.0 2.0 0.01 0.18 0.07 96 1023.3
20180723145004 76 64 0.0 2.0 0.01 0.18 0.07 96 1023.3
20180723144503 76 65 0.0 2.0 0.01 0.18 0.07 96 1023.3
20180723144004 76 57 0.0 2.0 0.01 0.18 0.07 96 1023.4
20180723143503 76 55 0.0 2.0 0.01 0.18 0.07 96 1023.4
20180723143003 76 47 0.0 2.0 0.01 0.18 0.07 96 1023.4
20180723142504 76 47 0.0 2.0 0.01 0.19 0.07 96 1023.4
20180723142003 76 51 0.0 4.0 0.01 0.19 0.07 96 1023.4
20180723141504 76 60 0.0 4.0 0.00 0.18 0.06 96 1023.4
20180723141004 76 127 0.0 1.0 0.00 0.19 0.06 96 1023.4
20180723140504 75 123 0.0 1.0 0.00 0.19 0.06 96 1023.4
20180723140004 75 123 0.0 1.0 0.00 0.19 0.06 96 1023.4
20180723135503 75 0 0.0 0.0 0.00 0.19 0.06 96 1023.3
20180723135004 75 0 0.0 0.0 0.00 0.19 0.06 96 1023.3
20180723134505 75 125 0.0 1.0 0.00 0.19 0.06 96 1023.3
20180723134004 75 124 0.0 1.0 0.00 0.19 0.06 96 1023.3
20180723133504 75 81 0.0 4.0 0.00 0.19 0.06 96 1023.3
20180723133004 75 97 0.0 4.0 0.00 0.19 0.06 96 1023.1
20180723132503 75 186 0.0 1.0 0.00 0.20 0.06 96 1023.1
20180723132004 75 188 0.0 1.0 0.00 0.20 0.06 96 1023.1
20180723131505 75 188 0.0 1.0 0.00 0.20 0.06 96 1023.1
20180723131004 75 0 0.0 0.0 0.00 0.21 0.06 96 1023.0
20180723130504 75 0 0.0 0.0 0.01 0.21 0.06 96 1023.0
20180723130004 75 0 0.0 0.0 0.01 0.21 0.06 96 1023.0
20180723125504 75 0 0.0 0.0 0.01 0.21 0.06 96 1023.0
20180723125003 74 0 0.0 0.0 0.01 0.21 0.06 96 1023.0
20180723124504 74 188 0.0 1.0 0.01 0.21 0.06 96 1023.0
20180723124003 74 218 0.0 6.0 0.01 0.21 0.06 96 1023.1
20180723123504 74 210 0.0 6.0 0.01 0.21 0.06 96 1023.1
20180723123004 74 43 0.0 2.0 0.01 0.21 0.06 96 1023.1
20180723122504 74 38 0.0 1.0 0.01 0.21 0.06 96 1023.0
20180723122004 74 32 0.0 2.0 0.01 0.21 0.06 96 1023.0
20180723121504 74 4 0.0 2.0 0.01 0.21 0.06 96 1023.0
20180723121004 74 298 0.0 1.0 0.01 0.22 0.06 96 1022.8
20180723120504 74 0 0.0 0.0 0.00 0.21 0.05 96 1022.8
20180723120004 74 0 0.0 0.0 0.00 0.21 0.05 96 1022.8
20180723115504 74 0 0.0 0.0 0.00 0.22 0.05 96 1022.6
20180723115003 74 0 0.0 0.0 0.00 0.22 0.05 96 1022.6
20180723114504 74 327 0.0 1.0 0.00 0.22 0.05 96 1022.6
20180723114003 74 40 0.0 2.0 0.00 0.22 0.05 96 1022.4
20180723113504 74 52 0.0 2.0 0.00 0.22 0.05 96 1022.4
20180723113003 74 80 0.0 4.0 0.00 0.22 0.05 96 1022.4
20180723112504 74 97 0.0 4.0 0.00 0.22 0.05 96 1022.2
20180723112003 74 0 0.0 0.0 0.00 0.22 0.05 95 1022.2
20180723111504 74 0 0.0 0.0 0.00 0.22 0.05 96 1022.2
20180723111003 73 0 0.0 0.0 0.00 0.22 0.05 96 1022.2
20180723110504 73 0 0.0 0.0 0.00 0.22 0.05 95 1022.2
20180723110003 73 91 0.0 1.0 0.00 0.22 0.05 95 1022.2
20180723105504 73 91 0.0 1.0 0.00 0.22 0.05 95 1022.1
20180723105004 73 0 0.0 0.0 0.00 0.22 0.05 95 1022.1
20180723104503 73 34 0.0 1.0 0.00 0.22 0.05 95 1022.1
20180723104003 73 34 0.0 1.0 0.00 0.22 0.05 95 1021.9
20180723103504 73 34 0.0 1.0 0.00 0.22 0.05 95 1021.9
20180723103003 73 0 0.0 0.0 0.00 0.22 0.05 95 1021.9
20180723102504 73 34 0.0 1.0 0.00 0.22 0.05 95 1022.0
20180723102004 73 34 0.0 1.0 0.00 0.22 0.05 95 1022.0
20180723101504 73 34 0.0 1.0 0.00 0.22 0.05 95 1022.0
20180723101004 73 0 0.0 0.0 0.00 0.22 0.05 95 1022.1
20180723100503 73 0 0.0 0.0 0.00 0.22 0.05 95 1022.1
20180723100004 73 0 0.0 0.0 0.00 0.22 0.05 95 1021.8
20180723095503 73 34 0.0 1.0 0.00 0.22 0.05 95 1021.8
20180723095004 73 34 0.0 1.0 0.00 0.22 0.05 95 1021.8
20180723094503 73 0 0.0 0.0 0.00 0.22 0.05 95 1021.8
20180723094004 73 0 0.0 0.0 0.00 0.22 0.05 95 1021.7
20180723093503 73 0 0.0 0.0 0.00 0.22 0.05 95 1021.7
20180723093004 73 0 0.0 0.0 0.00 0.22 0.05 95 1021.7
20180723092503 73 0 0.0 0.0 0.00 0.22 0.05 95 1021.5
20180723092004 73 0 0.0 0.0 0.00 0.22 0.05 95 1021.5
20180723091504 73 0 0.0 0.0 0.00 0.22 0.05 95 1021.5
20180723091003 73 31 0.0 1.0 0.00 0.22 0.05 95 1021.3
20180723090504 73 31 0.0 1.0 0.01 0.22 0.05 95 1021.3
20180723090004 73 0 0.0 0.0 0.01 0.22 0.05 95 1021.3
20180723085504 73 31 0.0 4.0 0.01 0.22 0.05 95 1021.2
20180723085004 73 31 0.0 4.0 0.02 0.22 0.05 95 1021.2
20180723084503 73 67 0.0 1.0 0.02 0.22 0.05 95 1021.2
20180723084004 73 67 0.0 1.0 0.02 0.22 0.05 95 1021.3
20180723083504 73 0 0.0 0.0 0.03 0.22 0.05 95 1021.3
20180723083004 73 0 0.0 0.0 0.03 0.22 0.05 95 1021.3
20180723082504 73 0 0.0 0.0 0.03 0.22 0.05 95 1021.2
20180723082004 73 100 0.0 1.0 0.03 0.22 0.05 95 1021.2
20180723081503 72 100 0.0 1.0 0.03 0.22 0.05 95 1021.2
20180723081004 72 0 0.0 0.0 0.03 0.22 0.05 95 1021.1
20180723080503 72 54 0.0 1.0 0.02 0.21 0.04 95 1021.1
20180723080004 72 53 0.0 1.0 0.02 0.21 0.04 95 1021.2
20180723075504 72 53 0.0 1.0 0.02 0.21 0.04 95 1021.2
20180723075004 72 0 0.0 0.0 0.01 0.20 0.03 95 1021.2
20180723074504 72 53 0.0 2.0 0.01 0.20 0.03 95 1021.2
20180723074004 72 53 0.0 2.0 0.01 0.20 0.03 95 1021.2
20180723073504 72 54 0.0 1.0 0.00 0.19 0.02 95 1021.2
20180723073003 72 55 0.0 1.0 0.00 0.19 0.02 94 1021.1
20180723072504 72 55 0.0 2.0 0.00 0.19 0.02 94 1021.1
20180723072003 72 56 0.0 2.0 0.00 0.19 0.02 94 1021.1
20180723071504 72 55 0.0 1.0 0.00 0.19 0.02 94 1021.1
20180723071003 72 0 0.0 0.0 0.00 0.19 0.02 94 1021.1
20180723070504 72 55 0.0 1.0 0.00 0.19 0.02 94 1021.1
20180723070004 72 55 0.0 1.0 0.00 0.19 0.02 94 1020.9
20180723065503 72 55 0.0 2.0 0.00 0.19 0.02 94 1020.9
20180723065004 72 55 0.0 2.0 0.00 0.19 0.02 94 1020.9
20180723064503 72 54 0.0 2.0 0.00 0.19 0.02 94 1021.1
20180723064004 72 55 0.0 1.0 0.00 0.19 0.02 94 1021.1
20180723063503 72 55 0.0 1.0 0.00 0.19 0.02 94 1021.1
20180723063004 72 55 0.0 1.0 0.00 0.19 0.02 94 1021.2
20180723062504 72 55 0.0 1.0 0.00 0.19 0.02 94 1021.2
20180723062004 72 55 0.0 1.0 0.00 0.19 0.02 94 1021.2
20180723061504 72 0 0.0 0.0 0.00 0.19 0.02 94 1021.2
20180723061004 72 0 0.0 0.0 0.00 0.19 0.02 94 1021.2
20180723060504 72 0 0.0 0.0 0.00 0.19 0.02 94 1021.2
20180723060004 72 0 0.0 0.0 0.02 0.19 0.02 94 1021.2
20180723055504 72 0 0.0 0.0 0.02 0.19 0.02 94 1021.2
20180723055004 72 0 0.0 0.0 0.02 0.19 0.02 94 1021.2
20180723054504 72 0 0.0 0.0 0.02 0.19 0.02 94 1021.1
20180723054004 71 0 0.0 0.0 0.02 0.19 0.02 93 1021.1
20180723053504 71 0 0.0 0.0 0.02 0.19 0.02 93 1021.1
20180723053004 71 54 0.0 2.0 0.02 0.19 0.02 93 1021.2
20180723052504 71 54 0.0 2.0 0.02 0.19 0.02 93 1021.2
20180723052003 71 55 0.0 1.0 0.02 0.19 0.02 93 1021.2
20180723051504 71 55 0.0 1.0 0.02 0.19 0.02 93 1021.1
20180723051003 71 0 0.0 0.0 0.02 0.19 0.02 93 1021.1
20180723050504 72 55 0.0 1.0 0.02 0.19 0.02 93 1021.1
20180723050003 72 55 0.0 1.0 0.00 0.17 0.00 93 1021.2
20180723045504 72 55 0.0 1.0 0.00 0.17 0.00 93 1021.2
20180723045003 71 55 0.0 1.0 0.00 0.17 0.00 93 1021.2
20180723044504 72 55 0.0 1.0 0.00 0.17 0.00 93 1021.3
20180723044004 72 55 0.0 2.0 0.00 0.17 0.00 93 1021.3
20180723043504 72 55 0.0 4.0 0.01 0.17 0.00 93 1021.3
20180723043004 72 56 0.0 4.0 0.01 0.17 0.00 93 1021.4
20180723042503 72 58 0.0 2.0 0.01 0.17 0.00 93 1021.4
20180723042004 72 61 0.0 1.0 0.01 0.17 0.00 93 1021.4
20180723041503 72 61 0.0 1.0 0.01 0.17 0.00 93 1021.4
20180723041004 72 54 0.0 2.0 0.01 0.17 0.00 93 1021.4
20180723040504 72 46 0.0 4.0 0.01 0.17 0.00 93 1021.4
20180723040005 72 45 0.0 4.0 0.01 0.17 0.00 93 1021.5
20180723035504 72 44 0.0 1.0 0.02 0.17 0.17 93 1021.5
20180723035003 72 45 0.0 1.0 0.02 0.17 0.17 93 1021.5
20180723034504 72 45 0.0 1.0 0.04 0.17 0.17 93 1021.7
20180723034003 72 45 0.0 1.0 0.05 0.17 0.17 93 1021.7
20180723033504 72 44 0.0 1.0 0.04 0.16 0.16 93 1021.7
20180723033003 72 0 0.0 0.0 0.04 0.16 0.16 93 1021.5
20180723032504 72 0 0.0 0.0 0.04 0.16 0.16 93 1021.5
20180723032003 72 45 0.0 1.0 0.04 0.16 0.16 93 1021.5
20180723031504 72 45 0.0 1.0 0.04 0.16 0.16 93 1021.6
20180723031004 72 0 0.0 0.0 0.04 0.16 0.16 93 1021.6
20180723030504 72 0 0.0 0.0 0.04 0.16 0.16 93 1021.6
20180723030004 72 0 0.0 0.0 0.04 0.16 0.16 93 1021.7
20180723025504 72 44 0.0 1.0 0.03 0.15 0.15 93 1021.7
20180723025004 72 45 0.0 1.0 0.03 0.15 0.15 93 1021.7
20180723024504 72 44 0.0 1.0 0.01 0.13 0.13 93 1021.6
20180723024004 72 45 0.0 2.0 0.00 0.12 0.12 93 1021.6
20180723023503 72 45 0.0 2.0 0.00 0.12 0.12 93 1021.6
20180723023004 72 0 0.0 0.0 0.00 0.12 0.12 93 1021.7
20180723022503 72 0 0.0 0.0 0.00 0.12 0.12 93 1021.7
20180723022004 72 0 0.0 0.0 0.00 0.12 0.12 93 1021.7
20180723020004 72 45 0.0 1.0 0.01 0.12 0.12 93 1021.7
20180723015504 72 45 0.0 1.0 0.01 0.12 0.12 93 1021.6
20180723015004 72 0 0.0 0.0 0.01 0.12 0.12 93 1021.6
20180723014504 72 0 0.0 0.0 0.01 0.12 0.12 93 1021.6
20180723014005 72 0 0.0 0.0 0.01 0.12 0.12 93 1021.6
20180723013504 72 0 0.0 0.0 0.01 0.12 0.12 93 1021.6
20180723013004 72 0 0.0 0.0 0.01 0.12 0.12 93 1021.6
20180723012504 72 0 0.0 0.0 0.01 0.12 0.12 93 1021.4
20180723012004 72 45 0.0 4.0 0.01 0.12 0.12 93 1021.4
20180723011504 72 45 0.0 4.0 0.01 0.12 0.12 93 1021.4
20180723011004 73 68 0.0 1.0 0.01 0.12 0.12 93 1021.1
20180723010504 73 68 0.0 1.0 0.01 0.12 0.12 93 1021.1
20180723010004 73 69 0.0 1.0 0.00 0.11 0.11 93 1021.1
20180723005504 73 69 0.0 1.0 0.00 0.11 0.11 93 1020.9
20180723005004 73 69 0.0 1.0 0.00 0.11 0.11 93 1020.9
20180723004504 73 69 0.0 1.0 0.00 0.11 0.11 93 1020.9
20180723004004 73 69 0.0 1.0 0.00 0.11 0.11 93 1020.7
20180723003503 73 70 0.0 1.0 0.00 0.11 0.11 93 1020.7
20180723003004 73 69 0.0 1.0 0.00 0.11 0.11 93 1020.7
20180723002503 73 69 0.0 1.0 0.00 0.11 0.11 93 1020.6
20180723002004 73 69 0.0 1.0 0.00 0.11 0.11 93 1020.6
20180723001503 73 69 0.0 1.0 0.00 0.11 0.11 93 1020.6
20180723001004 73 69 0.0 1.0 0.00 0.11 0.11 93 1020.6
20180723000503 73 69 0.0 1.0 0.00 0.11 0.11 93 1020.6
20180723000004 73 74 0.0 1.0 0.00 0.11 0.11 93 1020.6
20180722235504 73 79 0.0 1.0 0.00 0.11 0.11 93 1020.3
20180722235005 73 79 0.0 1.0 0.00 0.11 0.11 93 1020.3
20180722234504 73 0 0.0 0.0 0.00 0.11 0.11 93 1020.3
20180722234003 73 79 0.0 1.0 0.00 0.11 0.11 93 1020.2
20180722233504 73 79 0.0 1.0 0.00 0.11 0.11 93 1020.2
20180722233004 73 0 0.0 0.0 0.00 0.11 0.11 93 1020.2
20180722232503 73 0 0.0 0.0 0.00 0.11 0.11 93 1020.1
20180722232004 73 0 0.0 0.0 0.00 0.11 0.11 93 1020.1
20180722231503 73 79 0.0 1.0 0.00 0.11 0.11 93 1020.1
20180722231004 73 79 0.0 1.0 0.00 0.11 0.11 93 1020.1
20180722230503 73 0 0.0 0.0 0.00 0.11 0.11 93 1020.1
20180722230004 73 0 0.0 0.0 0.00 0.11 0.11 93 1020.1
20180722225504 73 0 0.0 0.0 0.00 0.11 0.11 93 1019.9
20180722225004 73 0 0.0 0.0 0.00 0.11 0.11 93 1019.9
20180722224504 73 79 0.0 1.0 0.00 0.11 0.11 93 1019.9
20180722224004 72 79 0.0 1.0 0.00 0.11 0.11 93 1019.9
20180722223504 72 79 0.0 1.0 0.00 0.11 0.11 94 1019.8
20180722223004 72 79 0.0 1.0 0.00 0.11 0.11 94 1019.8
20180722222504 72 79 0.0 1.0 0.00 0.11 0.11 94 1019.7
20180722222004 72 79 0.0 1.0 0.00 0.11 0.11 94 1019.7
20180722221503 72 79 0.0 1.0 0.00 0.11 0.11 94 1019.7
20180722221004 72 79 0.0 2.0 0.00 0.11 0.11 94 1019.6
20180722220503 72 79 0.0 2.0 0.00 0.11 0.11 94 1019.6
20180722220004 72 0 0.0 0.0 0.00 0.11 0.11 94 1019.6
20180722215504 72 79 0.0 1.0 0.00 0.11 0.11 94 1019.6
20180722215004 71 79 0.0 1.0 0.00 0.11 0.11 94 1019.6
20180722214503 71 79 0.0 1.0 0.00 0.11 0.11 94 1019.6
20180722214004 71 79 0.0 1.0 0.00 0.11 0.11 94 1019.6
20180722213503 71 79 0.0 1.0 0.00 0.11 0.11 94 1019.6
20180722213004 71 79 0.0 1.0 0.00 0.11 0.11 94 1019.6
20180722212504 71 79 0.0 1.0 0.00 0.11 0.11 94 1019.7
20180722212003 71 79 0.0 1.0 0.00 0.11 0.11 94 1019.7
20180722211504 70 79 0.0 2.0 0.00 0.11 0.11 94 1019.7
20180722211004 70 79 0.0 2.0 0.00 0.11 0.11 94 1019.7
20180722210503 70 79 0.0 2.0 0.00 0.11 0.11 94 1019.7
20180722210004 70 79 1.0 4.0 0.00 0.11 0.11 94 1019.7
20180722205505 70 79 0.0 4.0 0.00 0.11 0.11 94 1019.6
20180722205004 70 80 0.0 1.0 0.00 0.11 0.11 94 1019.6
20180722204504 70 79 0.0 2.0 0.00 0.11 0.11 94 1019.6
20180722204004 70 79 0.0 2.0 0.00 0.11 0.11 94 1019.5
20180722203503 70 79 0.0 2.0 0.00 0.11 0.11 94 1019.5
20180722203004 70 0 0.0 0.0 0.00 0.11 0.11 94 1019.5
20180722202503 69 79 0.0 1.0 0.00 0.11 0.11 94 1019.6
20180722202004 69 78 0.0 2.0 0.00 0.11 0.11 94 1019.6
20180722201503 69 78 0.0 2.0 0.00 0.11 0.11 94 1019.6
20180722201003 69 78 0.0 1.0 0.00 0.11 0.11 94 1020.0
20180722200504 69 0 0.0 0.0 0.00 0.11 0.11 94 1020.0
20180722200004 69 0 0.0 0.0 0.00 0.11 0.11 94 1020.0
20180722195504 69 0 0.0 0.0 0.00 0.11 0.11 94 1020.0
20180722195004 69 0 0.0 0.0 0.00 0.11 0.11 94 1020.0
20180722194504 69 78 0.0 1.0 0.00 0.11 0.11 94 1020.0
20180722194004 69 78 0.0 1.0 0.00 0.11 0.11 94 1019.8
20180722193504 69 0 0.0 0.0 0.00 0.11 0.11 94 1019.8
20180722193003 68 0 0.0 0.0 0.00 0.11 0.11 94 1019.8
20180722192504 68 0 0.0 0.0 0.00 0.11 0.11 94 1019.7
20180722192004 68 78 0.0 1.0 0.00 0.11 0.11 94 1019.7
20180722191504 68 78 0.0 1.0 0.00 0.11 0.11 94 1019.7
20180722191004 68 78 0.0 2.0 0.00 0.11 0.11 94 1019.8
20180722190504 68 78 0.0 2.0 0.00 0.11 0.11 94 1019.8
20180722190004 68 0 0.0 0.0 0.00 0.11 0.11 94 1019.8
20180722185504 68 79 0.0 2.0 0.00 0.11 0.11 94 1019.7
20180722185004 68 79 0.0 2.0 0.00 0.11 0.11 94 1019.7
20180722184504 68 0 0.0 0.0 0.00 0.11 0.11 94 1019.7
20180722184004 68 0 0.0 0.0 0.00 0.11 0.11 94 1019.7
20180722183504 68 0 0.0 0.0 0.00 0.11 0.11 94 1019.7
20180722183004 68 0 0.0 0.0 0.00 0.11 0.11 94 1019.7
20180722182504 68 0 0.0 0.0 0.00 0.11 0.11 94 1019.6
20180722182004 68 0 0.0 0.0 0.00 0.11 0.11 94 1019.6
20180722181503 68 0 0.0 0.0 0.00 0.11 0.11 94 1019.6
20180722181004 68 79 0.0 2.0 0.01 0.11 0.11 94 1019.6
20180722180504 68 79 0.0 2.0 0.02 0.11 0.11 94 1019.6
20180722180004 67 79 0.0 1.0 0.02 0.11 0.11 94 1019.6
20180722175504 67 79 0.0 1.0 0.02 0.11 0.11 94 1019.6
20180722175003 67 79 0.0 1.0 0.02 0.11 0.11 94 1019.6
20180722174504 67 79 0.0 1.0 0.02 0.11 0.11 94 1019.6
20180722174003 67 79 0.0 1.0 0.02 0.11 0.11 94 1019.6
20180722173504 67 79 0.0 1.0 0.02 0.11 0.11 94 1019.6
20180722173004 66 79 0.0 1.0 0.02 0.11 0.11 94 1019.6
20180722172503 66 0 0.0 0.0 0.02 0.11 0.11 93 1019.7